NOAA 16 DEB, 41351

Orbit data source: Space-Track

NOAA 16 DEB, 41351 is space debris in SSO originally from a launch on Thu, 21 Sep 2000 UTC launched from the Air Force Western Test Range (AFWTR). Debris objects in space refer to the collection of defunct objects orbiting the Earth. Examples of debris include non-operational satellites, rocket bodies, and fragments generated from explosions, collisions, or faulty payload assembly.

Loading next visibility...
Identifier
41351, 2000-055HU
Orbit
SSO
Country
Flag of USUS
Related business
Manufacturer
Unknown
Mission
Spacecraft
Bus & Motor
Unknown
Mass
Unknown
Launch date (UTC)
2000-09-21 (26 years ago)
Launch vehicle
Unknown
Launch site
Air Force Western Test Range (AFWTR)
Object type
Payload
Rocket body
Debris
Shape & HBR
Unknown shape, 0.1 m
Radar Cross Section
Small (<0.1 m²)

Expand to show TLE details & history
Last TLE update: 3 days ago

TLE from 3 days ago
0 NOAA 16 DEB
1 41351U 00055HU  26205.31940444  .00002822  00000-0  11949-2 0  9998
2 41351  98.6184 238.7663 0010899  59.6082 300.6174 14.26218717543680
Epoch: 2026-07-24T07:39Z
TLE epoch observation values (Epoch: 2026-07-24T07:39:56.543Z)
Latitude
-0.00004°
Longitude
-178.26703°
Altitude
803.343 km
Speed
7.454 km/s
True Right ascension
15h 55m 03s
True Declination
0° 00' 00"
Sunlit
Object was in daylight at epoch
Visualization orbit readout
Latitude
Unknown
Longitude
Unknown
Altitude
Unknown
Speed
Unknown
Apparent Right ascension
Unknown
Apparent Declination
Unknown
Sunlit
N/A
Visualization observer readout
Local Sidereal Time
13:16:17
Azimuth
Unknown
Elevation
Unknown
Doppler factor
Unknown
Orbital elements
Apogee altitude
809.369 km
Perigee altitude
793.719 km
Semi-major axis
7,179.681 km
Eccentricity
0.00109
Inclination
98.6184°
RAAN
238.7663°
Arg. of periapsis
59.6082°
True anomaly
300.50984°
Mean anomaly
300.6174°
Eccentric anomaly
300.56363°
Mean motion
3.56768 °/min
Orbital period
100.91 mins
BSTAR
0.0011949
Loading maneuver chart data...
Computing Atmospheric mass density...

Documentation

Showing up to 5 results
|